,,Stat5,,Stat1,,Stat2,,Stat3,,Stat4,,Wind1,,Wind1,
time,status,PA1M_AVG,status,PR1M_SUM,status,RH1M_AVG,status,SR1M_AVG,status,TA1M_AVG,status,W1dAve1m,status,W1sAve1m,
2000-09-10, 00:00:01,VALID,918.928,VALID,0,VALID,99.5043,VALID,-0.0339617,VALID,17.9657,VALID,180,VALID,1.08887,
2000-09-10, 00:01:00,VALID,918.929,VALID,0,VALID,99.5298,VALID,-0.0339617,VALID,17.985,VALID,155,VALID,1.25477,
2000-09-10, 00:02:00,VALID,918.925,VALID,0,VALID,99.4992,VALID,-0.0339617,VALID,17.9758,VALID,151,VALID,1.38945,
2000-09-10, 00:03:00,VALID,918.924,VALID,0,VALID,99.484,VALID,0,VALID,17.9562,VALID,166,VALID,1.32656,
2000-09-10, 00:04:00,VALID,918.895,VALID,0,VALID,99.5145,VALID,0,VALID,17.9661,VALID,187,VALID,1.127,
2000-09-10, 00:05:00,VALID,918.864,VALID,0,VALID,99.545,VALID,0,VALID,17.9723,VALID,207,VALID,1.37744,
2000-09-10, 00:06:00,VALID,918.841,VALID,0,VALID,99.5743,VALID,0,VALID,17.9947,VALID,206,VALID,1.54856,
2000-09-10, 00:07:00,VALID,918.82,VALID,0,VALID,99.5959,VALID,0,VALID,18.004,VALID,220,VALID,1.26391,
2000-09-10, 00:08:00,VALID,918.8,VALID,0,VALID,99.5908,VALID,-0.0339617,VALID,18.0307,VALID,212,VALID,1.23558,
2000-09-10, 00:09:00,VALID,918.799,VALID,0,VALID,99.6073,VALID,-0.0339617,VALID,18.0337,VALID,222,VALID,1.22917,
2000-09-10, 00:10:00,VALID,918.77,VALID,0,VALID,99.6251,VALID,-0.0679233,VALID,18.0496,VALID,209,VALID,1.2183,
2000-09-10, 00:11:00,VALID,918.743,VALID,0,VALID,99.6417,VALID,-0.0169808,VALID,18.069,VALID,216,VALID,1.33164,
2000-09-10, 00:12:00,VALID,918.718,VALID,0,VALID,99.662,VALID,-0.0339617,VALID,18.0983,VALID,211,VALID,0.902058,
2000-09-10, 00:13:00,VALID,918.718,VALID,0,VALID,99.6582,VALID,0,VALID,18.1011,VALID,204,VALID,0.9125,
2000-09-10, 00:14:00,VALID,918.69,VALID,0,VALID,99.6442,VALID,-0.0509425,VALID,18.1082,VALID,207,VALID,0.752111,
2000-09-10, 00:15:00,VALID,918.675,VALID,0,VALID,99.6556,VALID,-0.0679233,VALID,18.1174,VALID,199,VALID,0.917752,
2000-09-10, 00:16:00,VALID,918.663,VALID,0,VALID,99.69,VALID,-0.0679233,VALID,18.1373,VALID,193,VALID,1.04531,
2000-09-10, 00:17:00,VALID,918.643,VALID,0,VALID,99.6887,VALID,-0.0339617,VALID,18.1633,VALID,188,VALID,1.02492,
2000-09-10, 00:18:00,VALID,918.62,VALID,0,VALID,99.6849,VALID,-0.0169808,VALID,18.1624,VALID,188,VALID,0.954181,
2000-09-10, 00:19:00,VALID,918.59,VALID,0,VALID,99.6887,VALID,-0.0509425,VALID,18.1885,VALID,199,VALID,1.03806,
2000-09-10, 00:20:00,VALID,918.569,VALID,0,VALID,99.6925,VALID,-0.0169808,VALID,18.2074,VALID,198,VALID,0.933093,
2000-09-10, 00:21:00,VALID,918.534,VALID,0,VALID,99.6696,VALID,-0.0509425,VALID,18.221,VALID,200,VALID,0.844196,
2000-09-10, 00:22:00,VALID,918.532,VALID,0,VALID,99.6582,VALID,-0.0679233,VALID,18.2272,VALID,204,VALID,0.799548,
2000-09-10, 00:23:00,VALID,918.505,VALID,0,VALID,99.6506,VALID,-0.0169808,VALID,18.2436,VALID,201,VALID,0.961138,
2000-09-10, 00:24:00,VALID,918.475,VALID,0,VALID,99.6493,VALID,-0.0509425,VALID,18.2561,VALID,200,VALID,0.785742,
2000-09-10, 00:25:00,VALID,918.449,VALID,0,VALID,99.6213,VALID,-0.0169808,VALID,18.2722,VALID,195,VALID,0.887247,
2000-09-10, 00:26:00,VALID,918.422,VALID,0,VALID,99.6188,VALID,-0.0339617,VALID,18.2888,VALID,198,VALID,1.00486,
2000-09-10, 00:27:00,VALID,918.404,VALID,0,VALID,99.6048,VALID,-0.0509425,VALID,18.2946,VALID,201,VALID,0.978516,
2000-09-10, 00:28:00,VALID,918.368,VALID,0,VALID,99.5679,VALID,-0.0679233,VALID,18.3082,VALID,185,VALID,1.1416,
2000-09-10, 00:29:00,VALID,918.337,VALID,0,VALID,99.531,VALID,0.0169808,VALID,18.3105,VALID,195,VALID,1.09121,
2000-09-10, 00:30:00,VALID,918.306,VALID,0,VALID,99.4764,VALID,0.0849042,VALID,18.3225,VALID,197,VALID,1.15645,
2000-09-10, 00:31:00,VALID,918.287,VALID,0,VALID,99.4331,VALID,0.101885,VALID,18.3384,VALID,190,VALID,1.01002,
2000-09-10, 00:32:00,VALID,918.266,VALID,0,VALID,99.3861,VALID,0.0679233,VALID,18.3583,VALID,193,VALID,0.938839,
2000-09-10, 00:33:00,VALID,918.254,VALID,0,VALID,99.3225,VALID,0.0339617,VALID,18.3583,VALID,186,VALID,1.05789,
2000-09-10, 00:34:00,VALID,918.23,VALID,0,VALID,99.2564,VALID,0.0849042,VALID,18.361,VALID,186,VALID,1.09581,
2000-09-10, 00:35:00,VALID,918.203,VALID,0,VALID,99.1915,VALID,0.0679233,VALID,18.3615,VALID,189,VALID,0.932155,
2000-09-10, 00:36:00,VALID,918.183,VALID,0,VALID,99.1165,VALID,0.0679233,VALID,18.3419,VALID,195,VALID,1.01953,
2000-09-10, 00:37:00,VALID,918.158,VALID,0,VALID,99.0796,VALID,0.0339617,VALID,18.3483,VALID,206,VALID,1.16688,
2000-09-10, 00:38:00,VALID,918.145,VALID,0,VALID,99.0593,VALID,0.0509425,VALID,18.3417,VALID,213,VALID,1.22541,
2000-09-10, 00:39:00,VALID,918.119,VALID,0,VALID,99.0415,VALID,0.0339617,VALID,18.3419,VALID,221,VALID,1.17061,
2000-09-10, 00:40:00,VALID,918.117,VALID,0,VALID,99.0237,VALID,0.0509425,VALID,18.3716,VALID,216,VALID,1.72877,
2000-09-10, 00:41:00,VALID,918.097,VALID,0,VALID,98.9639,VALID,0.0849042,VALID,18.3677,VALID,216,VALID,1.46254,
2000-09-10, 00:42:00,VALID,918.1,VALID,0,VALID,98.9258,VALID,0.0849042,VALID,18.3816,VALID,205,VALID,1.10136,
2000-09-10, 00:43:00,VALID,918.097,VALID,0,VALID,98.9054,VALID,0.0509425,VALID,18.4132,VALID,185,VALID,1.01786,
2000-09-10, 00:44:00,VALID,918.1,VALID,0,VALID,98.7999,VALID,-0.0339617,VALID,18.4369,VALID,177,VALID,1.12891,
2000-09-10, 00:45:00,VALID,918.1,VALID,0,VALID,98.6638,VALID,-0.0509425,VALID,18.4759,VALID,179,VALID,0.905273,
2000-09-10, 00:46:00,VALID,918.105,VALID,0,VALID,98.4438,VALID,-0.0169808,VALID,18.5015,VALID,195,VALID,0.878125,
2000-09-10, 00:47:00,VALID,918.096,VALID,0,VALID,98.1259,VALID,-0.0339617,VALID,18.4921,VALID,219,VALID,1.5682,
2000-09-10, 00:48:00,VALID,918.105,VALID,0,VALID,97.8856,VALID,-0.0509425,VALID,18.4605,VALID,218,VALID,1.63976,
2000-09-10, 00:49:00,VALID,918.105,VALID,0,VALID,97.7991,VALID,-0.0679233,VALID,18.4049,VALID,218,VALID,1.37522,
2000-09-10, 00:50:00,VALID,918.088,VALID,0,VALID,97.8703,VALID,-0.0339617,VALID,18.3564,VALID,228,VALID,1.54307,
2000-09-10, 00:51:00,VALID,918.072,VALID,0,VALID,97.9835,VALID,-0.0169808,VALID,18.3271,VALID,220,VALID,1.84058,
2000-09-10, 00:52:00,VALID,918.07,VALID,0,VALID,98.0407,VALID,-0.0679233,VALID,18.3114,VALID,227,VALID,1.81771,
2000-09-10, 00:53:00,VALID,918.05,VALID,0,VALID,98.1374,VALID,-0.0339617,VALID,18.3017,VALID,230,VALID,1.84535,
2000-09-10, 00:54:00,VALID,918.048,VALID,0,VALID,98.2073,VALID,-0.0339617,VALID,18.305,VALID,235,VALID,1.36563,
2000-09-10, 00:55:00,VALID,918.053,VALID,0,VALID,98.2671,VALID,-0.0679233,VALID,18.2854,VALID,241,VALID,1.08635,
2000-09-10, 00:56:00,VALID,918.068,VALID,0,VALID,98.3217,VALID,-0.0509425,VALID,18.2981,VALID,232,VALID,1.04688,
2000-09-10, 00:57:00,VALID,918.062,VALID,0,VALID,98.3306,VALID,0,VALID,18.2951,VALID,255,VALID,0.857227,
2000-09-10, 00:58:00,VALID,918.078,VALID,0,VALID,98.2963,VALID,-0.0339617,VALID,18.2789,VALID,265,VALID,0.641681,
2000-09-10, 00:59:00,VALID,918.076,VALID,0,VALID,98.323,VALID,-0.0509425,VALID,18.2724,VALID,252,VALID,0.661529,
2000-09-10, 01:00:00,VALID,918.086,VALID,0,VALID,98.3332,VALID,-0.0509425,VALID,18.2496,VALID,264,VALID,0.175781,
2000-09-10, 01:01:00,VALID,918.081,VALID,0,VALID,98.3586,VALID,-0.0169808,VALID,18.2533,VALID,282,VALID,0.0210938,
2000-09-10, 01:02:00,VALID,918.063,VALID,0,VALID,98.365,VALID,-0.0339617,VALID,18.2335,VALID,282,VALID,0,
2000-09-10, 01:03:00,VALID,918.054,VALID,0,VALID,98.3599,VALID,-0.0169808,VALID,18.2205,VALID,282,VALID,0,
2000-09-10, 01:04:00,VALID,918.031,VALID,0,VALID,98.3116,VALID,-0.0339617,VALID,18.1982,VALID,282,VALID,0,
2000-09-10, 01:05:00,VALID,918.015,VALID,0,VALID,98.2976,VALID,-0.0509425,VALID,18.1753,VALID,282,VALID,0,
2000-09-10, 01:06:00,VALID,918.017,VALID,0,VALID,98.2925,VALID,-0.0339617,VALID,18.1403,VALID,282,VALID,0,
2000-09-10, 01:07:00,VALID,918.003,VALID,0,VALID,98.2404,VALID,-0.0339617,VALID,18.1147,VALID,281,VALID,0,
2000-09-10, 01:08:00,VALID,918.003,VALID,0,VALID,98.2162,VALID,-0.0509425,VALID,18.072,VALID,233,VALID,0,
2000-09-10, 01:09:00,VALID,918.011,VALID,0,VALID,98.178,VALID,-0.0509425,VALID,18.0335,VALID,145,VALID,0,
2000-09-10, 01:10:00,VALID,918.029,VALID,0,VALID,98.1666,VALID,-0.0169808,VALID,18.0111,VALID,110,VALID,0,
2000-09-10, 01:11:00,VALID,918.033,VALID,0,VALID,98.3065,VALID,0,VALID,18.0141,VALID,67,VALID,0.209559,
2000-09-10, 01:12:00,VALID,918.047,VALID,0,VALID,98.4451,VALID,-0.0169808,VALID,18.0365,VALID,66,VALID,0.370355,
2000-09-10, 01:13:00,VALID,918.055,VALID,0,VALID,98.5392,VALID,-0.0509425,VALID,18.0524,VALID,67,VALID,0.283454,
2000-09-10, 01:14:00,VALID,918.059,VALID,0,VALID,98.6117,VALID,-0.0169808,VALID,18.0688,VALID,70,VALID,0.388221,
2000-09-10, 01:15:00,VALID,918.055,VALID,0,VALID,98.6384,VALID,-0.0169808,VALID,18.0752,VALID,87,VALID,0.128806,
2000-09-10, 01:16:00,VALID,918.033,VALID,0,VALID,98.6892,VALID,0,VALID,18.0957,VALID,99,VALID,0,
2000-09-10, 01:17:00,VALID,918.011,VALID,0,VALID,98.6969,VALID,-0.0169808,VALID,18.0955,VALID,99,VALID,0,
2000-09-10, 01:18:00,VALID,917.999,VALID,0,VALID,98.7083,VALID,-0.0169808,VALID,18.0856,VALID,99,VALID,0,
2000-09-10, 01:19:00,VALID,917.977,VALID,0,VALID,98.7261,VALID,-0.0169808,VALID,18.0854,VALID,99,VALID,0,
2000-09-10, 01:20:00,VALID,917.973,VALID,0,VALID,98.7846,VALID,-0.0339617,VALID,18.1144,VALID,99,VALID,0,
2000-09-10, 01:21:00,VALID,917.978,VALID,0,VALID,98.852,VALID,0,VALID,18.1433,VALID,46,VALID,0,
2000-09-10, 01:22:00,VALID,917.975,VALID,0,VALID,98.9194,VALID,-0.0509425,VALID,18.1825,VALID,10,VALID,0,
2000-09-10, 01:23:00,VALID,917.984,VALID,0,VALID,98.9664,VALID,0,VALID,18.221,VALID,357,VALID,0,
2000-09-10, 01:24:00,VALID,917.969,VALID,0,VALID,98.9868,VALID,0,VALID,18.2372,VALID,304,VALID,0,
2000-09-10, 01:25:00,VALID,917.96,VALID,0,VALID,98.9842,VALID,-0.0339617,VALID,18.2208,VALID,298,VALID,0,
2000-09-10, 01:26:00,VALID,917.957,VALID,0,VALID,99.0084,VALID,-0.0169808,VALID,18.2339,VALID,303,VALID,0,
2000-09-10, 01:27:01,VALID,917.948,VALID,0,VALID,99.0237,VALID,-0.0169808,VALID,18.2342,VALID,304,VALID,0,
2000-09-10, 01:28:00,VALID,917.924,VALID,0,VALID,99.0504,VALID,0,VALID,18.2434,VALID,257,VALID,0,
2000-09-10, 01:29:01,VALID,917.92,VALID,0,VALID,99.0682,VALID,-0.0339617,VALID,18.2561,VALID,258,VALID,0,
2000-09-10, 01:30:00,VALID,917.909,VALID,0,VALID,99.1012,VALID,-0.0169808,VALID,18.2828,VALID,124,VALID,0,
2000-09-10, 01:31:00,VALID,917.901,VALID,0,VALID,99.133,VALID,-0.0169808,VALID,18.2826,VALID,103,VALID,0.514569,
2000-09-10, 01:32:00,VALID,917.887,VALID,0,VALID,99.1165,VALID,-0.0169808,VALID,18.2817,VALID,104,VALID,0.671664,
2000-09-10, 01:33:00,VALID,917.877,VALID,0,VALID,99.1178,VALID,-0.0169808,VALID,18.2918,VALID,110,VALID,0.497613,
2000-09-10, 01:34:01,VALID,917.862,VALID,0,VALID,99.133,VALID,0,VALID,18.2819,VALID,128,VALID,0.756445,
2000-09-10, 01:35:00,VALID,917.823,VALID,0,VALID,99.0796,VALID,0.0169808,VALID,18.2692,VALID,132,VALID,0.903906,
2000-09-10, 01:36:00,VALID,917.815,VALID,0,VALID,99.0593,VALID,0,VALID,18.2429,VALID,147,VALID,0.913261,
2000-09-10, 01:37:01,VALID,917.81,VALID,0,VALID,99.0427,VALID,0.0169808,VALID,18.2305,VALID,140,VALID,0.994792,
2000-09-10, 01:38:00,VALID,917.785,VALID,0,VALID,99.0809,VALID,0,VALID,18.2272,VALID,130,VALID,1.05558,
2000-09-10, 01:39:00,VALID,917.779,VALID,0,VALID,99.1038,VALID,0,VALID,18.2208,VALID,127,VALID,1.0639,
2000-09-10, 01:40:00,VALID,917.772,VALID,0,VALID,99.1406,VALID,-0.0169808,VALID,18.227,VALID,131,VALID,1.01748,
2000-09-10, 01:41:01,VALID,917.768,VALID,0,VALID,99.1712,VALID,0,VALID,18.2367,VALID,125,VALID,1.02097,
2000-09-10, 01:42:01,VALID,917.759,VALID,0,VALID,99.1648,VALID,-0.0169808,VALID,18.2369,VALID,127,VALID,1.16059,
2000-09-10, 01:43:00,VALID,917.747,VALID,0,VALID,99.161,VALID,0.0339617,VALID,18.2429,VALID,116,VALID,1.03255,
2000-09-10, 01:44:01,VALID,917.735,VALID,0,VALID,99.1432,VALID,0,VALID,18.2235,VALID,106,VALID,0.987132,
2000-09-10, 01:45:00,VALID,917.727,VALID,0,VALID,99.1826,VALID,0,VALID,18.2457,VALID,101,VALID,0.756757,
2000-09-10, 01:46:00,VALID,917.731,VALID,0,VALID,99.1953,VALID,0,VALID,18.2658,VALID,99,VALID,0.598758,
2000-09-10, 01:47:00,VALID,917.718,VALID,0,VALID,99.2055,VALID,0,VALID,18.2914,VALID,118,VALID,0.305088,
2000-09-10, 01:48:00,VALID,917.708,VALID,0,VALID,99.2297,VALID,0,VALID,18.317,VALID,119,VALID,0,
2000-09-10, 01:49:00,VALID,917.698,VALID,0,VALID,99.2347,VALID,0,VALID,18.337,VALID,120,VALID,0,
2000-09-10, 01:50:00,VALID,917.693,VALID,0,VALID,99.2398,VALID,0,VALID,18.3592,VALID,121,VALID,0,
2000-09-10, 01:51:00,VALID,917.681,VALID,0,VALID,99.2297,VALID,-0.0169808,VALID,18.3721,VALID,121,VALID,0,
2000-09-10, 01:52:00,VALID,917.654,VALID,0,VALID,99.2068,VALID,0,VALID,18.3949,VALID,121,VALID,0,
2000-09-10, 01:53:00,VALID,917.641,VALID,0,VALID,99.2004,VALID,0,VALID,18.4141,VALID,127,VALID,0,
2000-09-10, 01:54:00,VALID,917.609,VALID,0,VALID,99.1788,VALID,0.0169808,VALID,18.4302,VALID,130,VALID,0,
2000-09-10, 01:55:01,VALID,917.574,VALID,0,VALID,99.1648,VALID,0,VALID,18.4429,VALID,131,VALID,0.160491,
2000-09-10, 01:56:01,VALID,917.538,VALID,0,VALID,99.1203,VALID,-0.0509425,VALID,18.4625,VALID,131,VALID,0.798353,
2000-09-10, 01:57:00,VALID,917.5,VALID,0,VALID,99.0694,VALID,-0.0169808,VALID,18.4695,VALID,116,VALID,0.913429,
2000-09-10, 01:58:00,VALID,917.466,VALID,0,VALID,99.0516,VALID,-0.0169808,VALID,18.469,VALID,113,VALID,0.884615,
2000-09-10, 01:59:00,VALID,917.438,VALID,0,VALID,99.0148,VALID,0,VALID,18.4685,VALID,119,VALID,0.990986,
2000-09-10, 02:00:01,VALID,917.41,VALID,0,VALID,98.997,VALID,0,VALID,18.4854,VALID,108,VALID,0.928795,
2000-09-10, 02:01:00,VALID,917.374,VALID,0,VALID,98.9893,VALID,0,VALID,18.478,VALID,100,VALID,0.973067,
2000-09-10, 02:02:01,VALID,917.342,VALID,0,VALID,98.9753,VALID,0,VALID,18.4842,VALID,102,VALID,0.848558,
2000-09-10, 02:03:00,VALID,917.313,VALID,0,VALID,98.941,VALID,-0.0169808,VALID,18.4948,VALID,112,VALID,0.73457,
2000-09-10, 02:04:00,VALID,917.286,VALID,0,VALID,98.9245,VALID,-0.0169808,VALID,18.5045,VALID,111,VALID,0.574747,
2000-09-10, 02:05:00,VALID,917.241,VALID,0,VALID,98.9283,VALID,0,VALID,18.5144,VALID,101,VALID,0.384816,
2000-09-10, 02:06:00,VALID,917.241,VALID,0,VALID,98.9372,VALID,0,VALID,18.511,VALID,106,VALID,0.401042,
2000-09-10, 02:07:00,VALID,917.23,VALID,0,VALID,98.9232,VALID,0.0169808,VALID,18.5234,VALID,109,VALID,0.404492,
2000-09-10, 02:08:00,VALID,917.204,VALID,0,VALID,98.9016,VALID,0,VALID,18.5172,VALID,113,VALID,0.312891,
2000-09-10, 02:09:00,VALID,917.19,VALID,0,VALID,98.9029,VALID,0.0169808,VALID,18.5304,VALID,111,VALID,0.327524,
2000-09-10, 02:10:01,VALID,917.18,VALID,0,VALID,98.9143,VALID,0,VALID,18.54,VALID,111,VALID,0.26903,
2000-09-10, 02:11:00,VALID,917.179,VALID,0,VALID,98.8901,VALID,0,VALID,18.5428,VALID,111,VALID,0.110714,
2000-09-10, 02:12:00,VALID,917.174,VALID,0,VALID,98.8787,VALID,0,VALID,18.5366,VALID,110,VALID,0.0414663,
2000-09-10, 02:13:00,VALID,917.167,VALID,0,VALID,98.8342,VALID,-0.0169808,VALID,18.5267,VALID,77,VALID,0.00925164,
2000-09-10, 02:14:01,VALID,917.157,VALID,0,VALID,98.7782,VALID,0,VALID,18.5142,VALID,46,VALID,0.38199,
2000-09-10, 02:15:00,VALID,917.153,VALID,0,VALID,98.8075,VALID,0,VALID,18.5142,VALID,307,VALID,0.157769,
2000-09-10, 02:16:00,VALID,917.148,VALID,0,VALID,98.8329,VALID,0,VALID,18.5137,VALID,295,VALID,0,
2000-09-10, 02:17:01,VALID,917.132,VALID,0,VALID,98.8049,VALID,0,VALID,18.4911,VALID,296,VALID,0,
2000-09-10, 02:18:00,VALID,917.123,VALID,0,VALID,98.8139,VALID,0,VALID,18.478,VALID,295,VALID,0,
2000-09-10, 02:19:00,VALID,917.106,VALID,0,VALID,98.8545,VALID,0,VALID,18.5013,VALID,295,VALID,0,
2000-09-10, 02:20:00,VALID,917.103,VALID,0,VALID,98.8584,VALID,0,VALID,18.4879,VALID,295,VALID,0,
2000-09-10, 02:21:00,VALID,917.1,VALID,0,VALID,98.8533,VALID,0,VALID,18.4849,VALID,295,VALID,0,
2000-09-10, 02:22:00,VALID,917.097,VALID,0,VALID,98.866,VALID,0,VALID,18.4881,VALID,293,VALID,0,
2000-09-10, 02:23:00,VALID,917.093,VALID,0,VALID,98.8571,VALID,-0.0169808,VALID,18.4688,VALID,294,VALID,0.110742,
2000-09-10, 02:24:00,VALID,917.101,VALID,0,VALID,98.8711,VALID,0,VALID,18.4459,VALID,267,VALID,0.292969,
2000-09-10, 02:25:01,VALID,917.106,VALID,0,VALID,98.88,VALID,0,VALID,18.4459,VALID,261,VALID,0.065625,
2000-09-10, 02:26:00,VALID,917.105,VALID,0,VALID,98.8838,VALID,0.0169808,VALID,18.4459,VALID,254,VALID,0.0348395,
2000-09-10, 02:27:00,VALID,917.112,VALID,0,VALID,98.9232,VALID,0,VALID,18.4625,VALID,245,VALID,0.126085,
2000-09-10, 02:28:00,VALID,917.12,VALID,0,VALID,98.9448,VALID,0,VALID,18.4658,VALID,241,VALID,0,
2000-09-10, 02:29:01,VALID,917.124,VALID,0,VALID,98.9728,VALID,0,VALID,18.4688,VALID,241,VALID,0,
2000-09-10, 02:30:00,VALID,917.132,VALID,0,VALID,98.9677,VALID,-0.0169808,VALID,18.4685,VALID,241,VALID,0,
2000-09-10, 02:31:00,VALID,917.132,VALID,0,VALID,98.9766,VALID,0.0169808,VALID,18.4819,VALID,241,VALID,0,
2000-09-10, 02:32:00,VALID,917.144,VALID,0,VALID,98.9906,VALID,0.0169808,VALID,18.4755,VALID,241,VALID,0,
2000-09-10, 02:33:01,VALID,917.158,VALID,0,VALID,99.0033,VALID,0,VALID,18.4884,VALID,241,VALID,0,
2000-09-10, 02:34:00,VALID,917.148,VALID,0,VALID,99.0186,VALID,-0.0169808,VALID,18.5045,VALID,241,VALID,0,
2000-09-10, 02:35:01,VALID,917.139,VALID,0,VALID,99.0351,VALID,0,VALID,18.5269,VALID,248,VALID,0,
2000-09-10, 02:36:00,VALID,917.133,VALID,0,VALID,99.0377,VALID,0,VALID,18.5336,VALID,265,VALID,0,
2000-09-10, 02:37:00,VALID,917.124,VALID,0,VALID,99.044,VALID,0,VALID,18.5627,VALID,266,VALID,0,
2000-09-10, 02:38:00,VALID,917.091,VALID,0,VALID,99.0478,VALID,0,VALID,18.5753,VALID,266,VALID,0,
2000-09-10, 02:39:00,VALID,917.073,VALID,0,VALID,99.0389,VALID,0,VALID,18.5848,VALID,266,VALID,0,
2000-09-10, 02:40:00,VALID,917.054,VALID,0,VALID,99.0275,VALID,0,VALID,18.5942,VALID,266,VALID,0,
2000-09-10, 02:41:01,VALID,917.049,VALID,0,VALID,99.0135,VALID,0.0169808,VALID,18.6203,VALID,266,VALID,0,
2000-09-10, 02:42:00,VALID,917.034,VALID,0,VALID,99.0109,VALID,0,VALID,18.6434,VALID,251,VALID,0,
2000-09-10, 02:43:01,VALID,917.029,VALID,0,VALID,98.9792,VALID,0,VALID,18.6425,VALID,223,VALID,0,
2000-09-10, 02:44:00,VALID,917.039,VALID,0,VALID,98.88,VALID,0,VALID,18.6399,VALID,220,VALID,0,
2000-09-10, 02:45:01,VALID,917.046,VALID,0,VALID,98.8622,VALID,0,VALID,18.6307,VALID,188,VALID,0,
2000-09-10, 02:46:01,VALID,917.04,VALID,0,VALID,98.8863,VALID,0,VALID,18.6302,VALID,159,VALID,0,
2000-09-10, 02:47:01,VALID,917.037,VALID,0,VALID,98.8863,VALID,0,VALID,18.6429,VALID,145,VALID,0,
2000-09-10, 02:48:00,VALID,917.049,VALID,0,VALID,98.8838,VALID,0.0169808,VALID,18.6561,VALID,139,VALID,0,
2000-09-10, 02:49:01,VALID,917.05,VALID,0,VALID,98.8406,VALID,0,VALID,18.6526,VALID,142,VALID,0,
2000-09-10, 02:50:01,VALID,917.036,VALID,0,VALID,98.7782,VALID,-0.0169808,VALID,18.6665,VALID,161,VALID,0,
2000-09-10, 02:51:00,VALID,917.039,VALID,0,VALID,98.7452,VALID,0,VALID,18.6561,VALID,167,VALID,0,
2000-09-10, 02:52:01,VALID,917.025,VALID,0,VALID,98.7287,VALID,0,VALID,18.6621,VALID,163,VALID,0,
2000-09-10, 02:53:01,VALID,917.01,VALID,0,VALID,98.7121,VALID,0,VALID,18.6752,VALID,146,VALID,0.561298,
2000-09-10, 02:54:01,VALID,916.995,VALID,0,VALID,98.6485,VALID,0,VALID,18.6588,VALID,166,VALID,0.719151,
2000-09-10, 02:55:00,VALID,916.966,VALID,0,VALID,98.5862,VALID,0,VALID,18.6499,VALID,173,VALID,0.928571,
2000-09-10, 02:56:01,VALID,916.942,VALID,0,VALID,98.5239,VALID,0,VALID,18.6201,VALID,184,VALID,0.936133,
2000-09-10, 02:57:00,VALID,916.924,VALID,0,VALID,98.5265,VALID,0,VALID,18.6141,VALID,190,VALID,0.742578,
2000-09-10, 02:58:01,VALID,916.914,VALID,0,VALID,98.5188,VALID,0,VALID,18.6076,VALID,206,VALID,0.755469,
2000-09-10, 02:59:01,VALID,916.92,VALID,0,VALID,98.5341,VALID,-0.0169808,VALID,18.5915,VALID,202,VALID,0.708404,
2000-09-10, 03:00:01,VALID,916.91,VALID,0,VALID,98.5506,VALID,0,VALID,18.5783,VALID,197,VALID,0.42079,
2000-09-10, 03:01:01,VALID,916.89,VALID,0,VALID,98.5417,VALID,0,VALID,18.5684,VALID,195,VALID,0.0209821,
2000-09-10, 03:02:01,VALID,916.869,VALID,0,VALID,98.5646,VALID,-0.0169808,VALID,18.5624,VALID,160,VALID,0.0073902,
2000-09-10, 03:03:01,VALID,916.855,VALID,0,VALID,98.543,VALID,0,VALID,18.5398,VALID,111,VALID,0.869721,
2000-09-10, 03:04:01,VALID,916.832,VALID,0,VALID,98.4362,VALID,0.0169808,VALID,18.4981,VALID,102,VALID,0.580128,
2000-09-10, 03:05:01,VALID,916.83,VALID,0,VALID,98.4018,VALID,0,VALID,18.4528,VALID,102,VALID,0.0616987,
2000-09-10, 03:06:01,VALID,916.838,VALID,0,VALID,98.4286,VALID,0,VALID,18.4489,VALID,101,VALID,0,
2000-09-10, 03:07:01,VALID,916.848,VALID,0,VALID,98.4489,VALID,0.0169808,VALID,18.4199,VALID,102,VALID,0,
2000-09-10, 03:08:01,VALID,916.85,VALID,0,VALID,98.4336,VALID,-0.0169808,VALID,18.4039,VALID,127,VALID,0,
2000-09-10, 03:09:01,VALID,916.858,VALID,0,VALID,98.4324,VALID,0,VALID,18.3647,VALID,226,VALID,0.555469,
2000-09-10, 03:10:01,VALID,916.839,VALID,0,VALID,98.3751,VALID,0.0169808,VALID,18.3497,VALID,214,VALID,0.535895,
2000-09-10, 03:11:01,VALID,916.811,VALID,0,VALID,98.4158,VALID,0,VALID,18.3142,VALID,208,VALID,0.0654561,
2000-09-10, 03:12:01,VALID,916.799,VALID,0,VALID,98.4781,VALID,0,VALID,18.2879,VALID,208,VALID,0,
2000-09-10, 03:13:01,VALID,916.789,VALID,0,VALID,98.5214,VALID,-0.0169808,VALID,18.2784,VALID,234,VALID,0,
2000-09-10, 03:14:01,VALID,916.791,VALID,0,VALID,98.5315,VALID,0,VALID,18.2498,VALID,305,VALID,0,
2000-09-10, 03:15:01,VALID,916.802,VALID,0,VALID,98.5926,VALID,-0.0679233,VALID,18.2307,VALID,311,VALID,0,
2000-09-10, 03:16:01,VALID,916.792,VALID,0,VALID,98.6765,VALID,0,VALID,18.23,VALID,311,VALID,0,
2000-09-10, 03:17:01,VALID,916.779,VALID,0,VALID,98.7325,VALID,-0.0339617,VALID,18.2302,VALID,349,VALID,0.227902,
2000-09-10, 03:18:00,VALID,916.778,VALID,0,VALID,98.7719,VALID,-0.0169808,VALID,18.2268,VALID,99,VALID,0.852364,
2000-09-10, 03:19:00,VALID,916.761,VALID,0,VALID,98.6193,VALID,-0.0339617,VALID,18.146,VALID,107,VALID,1.04996,
2000-09-10, 03:20:00,VALID,916.757,VALID,0,VALID,98.6015,VALID,-0.0339617,VALID,18.0879,VALID,106,VALID,1.02467,
2000-09-10, 03:21:00,VALID,916.754,VALID,0,VALID,98.6663,VALID,-0.0169808,VALID,18.0623,VALID,116,VALID,0.901476,
2000-09-10, 03:22:00,VALID,916.751,VALID,0,VALID,98.7401,VALID,-0.0169808,VALID,18.0589,VALID,120,VALID,1.06619,
2000-09-10, 03:23:00,VALID,916.754,VALID,0,VALID,98.8393,VALID,-0.0169808,VALID,18.0625,VALID,139,VALID,0.852252,
2000-09-10, 03:24:00,VALID,916.742,VALID,0,VALID,99.0516,VALID,-0.0169808,VALID,18.1103,VALID,167,VALID,1.09713,
2000-09-10, 03:25:00,VALID,916.747,VALID,0,VALID,99.0135,VALID,-0.0339617,VALID,18.1204,VALID,190,VALID,1.10978,
2000-09-10, 03:26:00,VALID,916.741,VALID,0,VALID,98.894,VALID,-0.0339617,VALID,18.0849,VALID,195,VALID,1.16867,
2000-09-10, 03:27:00,VALID,916.75,VALID,0,VALID,98.7871,VALID,-0.0169808,VALID,18.0072,VALID,205,VALID,1.01783,
2000-09-10, 03:28:00,VALID,916.755,VALID,0,VALID,98.7719,VALID,-0.0509425,VALID,17.959,VALID,217,VALID,1.3279,
2000-09-10, 03:29:00,VALID,916.761,VALID,0,VALID,98.9054,VALID,0,VALID,17.9426,VALID,222,VALID,1.07715,
2000-09-10, 03:30:00,VALID,916.749,VALID,0,VALID,98.9575,VALID,-0.0169808,VALID,17.9461,VALID,220,VALID,1.13789,
2000-09-10, 03:31:00,VALID,916.74,VALID,0,VALID,98.9906,VALID,-0.0169808,VALID,17.9463,VALID,214,VALID,0.67832,
2000-09-10, 03:32:00,VALID,916.729,VALID,0,VALID,98.9614,VALID,-0.0169808,VALID,17.9138,VALID,211,VALID,0.93011,
2000-09-10, 03:33:00,VALID,916.729,VALID,0,VALID,98.9817,VALID,-0.0679233,VALID,17.8748,VALID,201,VALID,0.598741,
2000-09-10, 03:34:00,VALID,916.718,VALID,0,VALID,99.0224,VALID,-0.0509425,VALID,17.8755,VALID,183,VALID,0.782589,
2000-09-10, 03:35:00,VALID,916.719,VALID,0,VALID,99.0377,VALID,-0.0169808,VALID,17.8425,VALID,177,VALID,0.855997,
2000-09-10, 03:36:00,VALID,916.717,VALID,0,VALID,99.1991,VALID,-0.0169808,VALID,17.8656,VALID,199,VALID,1.07137,
2000-09-10, 03:37:00,VALID,916.733,VALID,0,VALID,99.2347,VALID,-0.0339617,VALID,17.8785,VALID,202,VALID,1.2474,
2000-09-10, 03:38:00,VALID,916.738,VALID,0,VALID,99.3123,VALID,-0.0169808,VALID,17.9075,VALID,203,VALID,1.51442,